Theta_e
327 323 325 317 311 307 304 303 291 299 298 289 290 291 290 295 294 292 291 293 291 295 297 297 295 297 294 293 293 296 298 296 300 292 291 301 309 306 310 311 310 310 313 316 316 318 319 323 327 329 329 329 327 327 327 325 323 323 322 320 319 318 318 317 317 318 318 317 317 317 317 316 317 317 317 317 317 316 318 319 318 318 318 318 318 319 319 320 320 320 321 322 322 322 322 322 320
321 317 316 313 308 310 301 303 297 294 293 289 290 293 291 293 293 290 289 292 295 294 295 295 295 295 296 297 295 297 298 300 301 300 306 306 306 307 311 310 310 311 311 314 316 316 317 321 327 327 330 329 327 328 326 325 324 323 321 319 318 320 318 317 317 318 318 316 317 317 316 317 317 317 317 317 317 317 315 318 318 317 318 318 318 319 319 319 320 320 321 321 321 321 322 321 321
318 314 312 310 306 304 302 303 291 291 289 286 290 291 294 289 290 292 294 294 295 295 295 294 295 295 295 296 295 294 292 301 301 302 302 305 302 304 309 311 310 311 312 313 316 316 318 322 326 326 330 330 329 328 326 325 325 323 320 320 320 320 319 319 318 318 317 317 317 317 317 318 317 317 317 317 317 317 315 317 318 318 317 317 318 318 319 319 320 320 320 320 320 321 321 321 321
323 315 311 307 303 306 298 297 293 289 291 289 287 293 293 291 291 293 295 295 294 294 295 294 292 296 296 292 295 298 296 298 300 301 302 301 301 307 308 310 311 309 311 315 315 317 319 324 325 328 330 330 330 328 326 325 326 324 321 320 321 321 319 318 318 318 318 318 317 317 318 317 317 317 316 317 316 317 316 315 317 318 316 317 318 317 319 319 319 319 319 319 320 321 321 321 321
312 312 311 304 304 302 302 297 293 292 288 288 287 292 294 293 293 294 294 294 293 293 295 295 293 297 297 295 297 294 297 299 300 302 304 306 308 307 307 311 309 308 310 312 314 316 319 326 325 327 330 330 330 329 327 327 326 325 322 321 321 319 320 320 319 319 318 317 316 318 318 318 316 315 316 315 316 317 312 316 316 317 316 318 318 318 318 319 319 319 319 319 320 320 321 320 320
314 310 310 309 300 306 300 292 291 288 292 292 290 291 294 295 294 293 294 294 295 294 295 293 294 296 294 297 298 294 304 297 302 301 304 304 308 307 307 312 308 308 308 310 313 314 317 327 325 327 330 329 330 330 328 327 326 325 324 322 320 321 321 320 320 319 317 316 317 317 318 316 316 314 314 314 316 315 315 316 316 316 317 317 318 318 318 318 319 318 319 319 319 320 320 320 320
307 306 308 309 308 304 294 290 290 291 294 293 290 291 294 295 294 294 293 293 295 295 296 295 296 295 293 297 300 299 302 301 302 310 311 308 309 307 308 307 307 308 308 309 309 313 320 326 325 328 330 330 330 330 329 327 326 326 324 322 321 321 320 320 319 318 317 317 316 317 316 316 315 313 313 314 315 316 316 317 315 316 316 317 317 316 317 318 318 318 318 319 319 319 319 319 319
313 306 309 299 298 296 292 290 291 292 293 293 293 292 295 296 295 294 292 292 291 291 293 296 295 294 294 298 293 303 302 304 308 310 308 307 308 307 307 306 306 307 308 308 307 309 324 326 325 328 330 331 329 330 329 328 326 326 324 323 322 321 320 320 319 317 318 317 317 317 316 315 314 314 314 313 314 315 315 314 315 317 317 317 317 317 316 317 317 318 318 318 319 318 319 318 318
308 303 311 304 293 299 292 290 291 296 292 293 293 297 301 297 296 294 292 294 293 294 293 294 294 290 293 295 293 300 300 303 306 310 308 307 307 308 307 305 304 305 308 307 307 313 320 326 326 328 329 329 329 330 329 328 326 326 324 324 323 322 321 319 318 319 318 318 316 317 316 314 314 314 314 313 313 314 314 315 316 317 317 316 317 317 317 316 316 317 318 318 318 317 317 317 317
305 304 299 299 299 290 292 291 291 292 291 293 293 294 295 296 295 295 293 293 293 293 295 296 295 292 296 294 296 298 299 303 305 306 306 307 309 308 307 306 305 305 307 306 307 314 319 323 325 327 328 328 330 330 329 328 327 326 324 324 324 323 322 321 319 319 319 317 317 316 315 315 314 313 312 313 313 314 315 315 315 317 317 316 316 317 317 317 317 317 318 318 318 316 316 316 316
300 301 307 297 292 289 290 290 291 291 291 293 293 296 295 295 295 294 294 295 295 294 295 296 293 292 293 293 294 305 302 303 302 302 305 307 308 307 306 306 305 305 306 307 308 309 318 319 322 326 327 328 329 329 328 328 327 327 325 324 324 323 322 321 320 319 318 318 317 316 315 315 315 313 312 312 313 314 314 314 315 316 317 317 317 317 316 317 317 317 317 318 317 316 315 315 315
297 299 302 293 290 292 291 290 291 292 292 292 291 295 294 295 295 293 293 293 294 294 293 295 293 296 292 293 294 299 301 301 302 304 304 307 306 306 306 304 305 306 307 308 309 309 317 317 318 322 326 327 328 328 328 328 327 327 325 324 324 324 323 322 320 320 320 318 317 317 316 315 315 314 312 311 312 313 313 313 313 315 316 316 316 316 315 315 316 316 317 318 317 315 314 313 313
299 301 296 293 291 293 292 290 292 291 293 291 292 294 295 294 293 294 294 294 294 293 293 296 296 296 292 293 299 300 299 301 301 304 305 306 306 305 305 303 304 306 308 308 307 309 316 315 317 318 322 325 326 327 327 327 327 327 325 324 324 324 323 322 321 320 320 319 318 317 316 315 315 314 312 311 311 313 313 313 313 314 315 315 315 315 315 316 315 316 316 316 317 315 313 311 310
302 303 298 292 295 294 291 290 292 290 290 292 293 295 296 294 295 296 295 293 294 293 298 298 297 299 292 294 295 296 298 301 301 303 305 305 305 304 306 303 305 304 307 307 306 307 311 314 315 315 318 321 320 322 325 326 327 326 326 324 324 323 323 322 321 320 320 320 319 318 317 315 314 314 312 311 310 312 313 313 311 313 313 314 314 314 315 315 315 315 315 315 315 315 312 310 308
301 304 298 296 291 292 293 290 292 290 290 293 294 294 294 298 297 296 295 293 295 298 298 300 299 294 289 292 295 296 298 301 303 306 304 304 304 305 307 307 309 307 305 305 305 304 308 311 312 313 314 316 318 317 317 320 324 326 326 325 324 323 323 322 321 320 320 320 319 318 317 316 314 314 312 311 311 310 312 312 310 311 312 313 313 314 314 315 315 314 314 314 314 313 311 309 307
307 302 298 294 290 291 294 291 293 292 289 293 294 295 294 295 297 295 297 296 296 298 298 295 299 295 298 299 299 299 300 301 301 303 304 304 305 307 307 306 304 305 305 304 304 304 306 309 309 311 312 314 315 315 315 316 320 323 324 324 323 323 323 322 322 321 320 320 320 319 319 314 315 313 314 309 312 311 312 311 310 309 310 311 312 312 313 314 314 314 314 314 314 313 311 309 307
306 305 294 292 288 291 294 291 291 288 291 293 295 294 292 293 296 297 296 301 295 296 295 297 297 299 295 299 300 300 301 302 303 303 306 303 302 302 304 304 303 303 307 305 304 304 305 307 308 309 310 312 312 312 312 314 316 321 322 323 322 322 322 321 320 320 319 318 318 317 318 314 309 308 310 307 312 309 312 312 310 310 309 309 310 311 311 312 312 312 313 313 313 312 310 309 308
305 296 292 290 291 291 291 290 290 291 292 291 292 293 293 291 293 296 296 294 294 295 295 297 298 297 298 298 300 301 300 300 301 302 302 301 301 300 300 300 300 301 303 304 305 305 304 306 307 308 309 311 311 312 313 314 315 319 317 318 318 319 320 320 318 315 315 312 316 314 311 310 309 309 309 311 308 308 309 311 310 308 308 308 308 310 310 311 311 311 311 311 311 311 311 302 302
299 295 294 290 292 292 292 291 292 292 291 294 293 294 293 294 294 295 292 292 292 292 293 295 295 297 299 299 298 298 300 301 301 301 301 300 300 300 300 300 300 300 302 303 304 306 305 305 306 307 307 310 312 312 313 314 314 316 316 317 317 319 317 316 314 314 312 312 311 311 310 309 308 306 307 310 308 311 307 313 310 309 309 309 309 309 310 311 311 310 310 310 310 310 305 300 299
296 295 290 294 292 292 292 293 292 292 293 293 292 294 293 294 295 295 293 291 293 291 291 292 293 295 296 298 298 298 298 300 301 300 301 300 301 300 300 300 300 300 302 304 304 306 305 305 306 307 307 308 310 311 313 313 313 315 314 315 316 316 316 315 314 313 312 312 312 311 309 308 307 306 310 310 309 307 308 312 311 310 309 310 311 310 311 311 310 310 310 309 312 309 300 299 299
298 294 291 294 292 290 291 293 292 292 293 293 293 293 292 294 295 293 293 290 291 293 296 295 294 295 297 298 298 299 297 297 300 300 300 301 301 301 300 301 301 302 302 304 304 305 305 306 306 306 307 308 308 309 311 310 312 312 313 313 314 314 314 314 314 313 311 311 310 309 309 308 307 306 306 305 304 304 302 304 305 304 303 302 309 303 302 303 307 302 302 306 300 301 300 300 300
298 291 295 292 292 291 292 292 292 290 292 293 293 291 292 295 295 292 292 289 289 293 296 298 298 298 297 297 298 299 298 297 297 298 299 300 300 301 301 300 303 303 303 303 304 305 305 305 306 306 307 307 307 307 308 309 311 309 310 312 312 311 312 312 311 311 310 310 309 309 309 308 306 306 306 305 304 303 301 302 304 303 302 302 304 301 300 300 302 301 301 301 301 299 300 300 299
289 293 292 292 292 291 293 293 290 289 292 293 292 293 293 293 292 293 292 292 294 295 295 296 297 296 296 297 297 297 298 297 297 297 298 299 299 300 301 301 300 301 303 303 304 304 305 305 305 306 306 307 307 307 306 307 308 308 307 307 308 308 309 311 310 310 309 309 310 310 308 306 304 304 305 303 305 304 301 301 304 304 303 302 304 301 300 301 302 301 300 302 301 300 299 299 299
292 289 291 292 291 292 292 292 291 290 291 292 292 292 291 292 289 294 292 294 296 297 298 296 296 296 295 294 295 295 295 296 297 298 299 299 300 300 301 301 301 299 301 303 304 305 305 304 305 306 305 306 306 307 306 305 306 306 306 308 308 308 308 309 309 309 310 309 310 310 309 306 304 304 305 303 303 304 302 303 303 301 301 302 304 303 301 300 300 299 299 299 300 299 299 299 299
291 289 294 291 291 293 292 290 290 291 290 291 292 290 290 292 292 292 292 295 296 297 298 297 296 296 295 295 295 295 295 295 296 297 299 299 300 301 301 301 300 300 300 301 304 304 305 305 305 305 305 305 306 307 306 305 305 305 305 306 306 310 307 307 308 309 308 308 310 310 308 306 304 305 304 303 304 304 303 303 301 300 301 301 302 300 302 301 300 299 300 299 299 300 299 300 299
293 292 293 292 292 293 291 291 291 291 291 292 289 289 291 292 293 291 293 295 297 297 297 297 297 296 295 295 295 295 295 296 296 296 297 297 299 298 300 301 301 300 301 301 303 304 305 306 305 305 305 305 305 306 305 304 304 304 305 305 306 308 306 307 307 307 307 306 307 309 308 307 304 303 303 303 303 304 303 303 302 301 300 301 300 301 300 300 299 299 299 300 300 300 300 300 299
292 292 293 293 292 292 292 290 292 291 292 292 289 289 291 292 291 289 295 296 296 296 296 296 294 294 295 295 296 295 296 296 296 297 297 297 297 298 298 299 300 301 301 300 302 303 304 305 304 305 305 305 305 305 305 304 304 305 305 305 305 306 306 306 306 307 306 305 305 308 308 307 305 303 302 303 303 303 304 304 303 302 300 300 301 301 302 301 300 299 300 299 300 300 299 299 298
293 293 292 291 291 291 292 291 291 291 290 291 290 289 291 292 291 289 294 293 295 294 294 294 294 293 294 295 295 296 296 297 297 297 297 297 297 297 297 298 298 299 300 300 300 303 304 304 304 304 305 305 305 305 305 304 303 304 305 306 305 305 306 305 304 305 305 305 305 306 308 307 305 303 302 303 303 302 303 303 303 303 301 300 301 301 301 302 301 301 300 301 300 300 299 298 300
292 291 289 290 290 289 291 290 291 291 291 290 291 288 287 288 286 292 294 294 293 293 293 294 294 295 294 295 296 296 296 296 297 296 297 297 297 298 297 298 299 298 299 300 301 301 303 303 303 304 304 305 304 304 305 305 304 304 305 305 306 307 306 305 304 304 304 305 306 306 307 307 306 304 302 303 304 302 302 303 302 303 303 302 302 302 302 301 301 300 300 301 300 300 299 299 300
293 291 288 289 289 287 291 292 293 290 292 291 291 282 287 288 291 293 294 293 293 293 292 293 294 295 296 296 295 296 297 298 297 298 297 298 298 298 298 299 299 299 299 299 299 301 301 305 305 304 304 304 304 304 304 304 304 304 304 305 306 306 305 305 304 304 304 304 305 305 306 306 306 304 303 302 303 303 303 303 303 302 302 302 302 303 301 302 301 300 300 299 302 300 299 299 298
288 291 290 287 287 286 292 292 291 290 292 292 292 285 287 292 293 294 294 294 293 291 292 292 295 295 294 295 295 297 298 298 299 300 302 302 302 301 302 300 299 300 300 300 300 300 300 301 304 303 304 302 304 303 304 304 304 304 304 304 304 305 305 305 304 304 304 304 304 305 306 306 306 305 304 303 303 303 303 302 302 302 304 303 301 302 302 302 301 300 299 300 300 298 298 299 299
288 287 285 289 286 289 290 291 292 289 292 293 291 285 287 290 293 294 294 293 293 291 291 292 293 293 294 294 296 296 298 300 301 302 302 302 302 300 300 299 299 298 298 300 302 301 300 300 301 300 301 301 303 303 302 304 304 304 304 306 304 305 304 304 304 304 304 304 304 304 306 306 306 305 305 304 303 304 303 302 302 303 303 303 302 302 303 301 301 301 300 300 298 298 299 298 298
290 287 287 289 287 289 287 289 293 293 290 294 290 285 288 289 292 292 293 293 293 291 292 292 293 294 293 293 295 295 298 300 302 301 301 301 302 300 300 299 299 298 298 299 299 301 300 300 301 300 300 301 302 303 302 301 303 303 304 304 305 305 304 303 303 304 304 304 303 303 306 307 306 306 305 305 304 304 304 303 302 304 304 303 302 301 301 301 300 301 300 300 299 297 297 298 298
287 289 285 290 288 287 285 287 290 293 291 287 290 286 287 290 292 293 292 293 292 291 292 292 293 292 293 296 296 296 297 298 299 300 301 301 301 302 302 302 300 298 298 298 299 300 299 298 299 299 300 301 301 302 302 302 302 303 302 303 303 304 304 303 303 303 303 303 303 303 305 307 306 306 305 305 304 304 304 303 303 303 304 303 302 301 301 301 300 300 299 299 300 298 297 297 296
288 288 287 287 287 285 286 287 288 289 290 286 287 287 288 290 292 293 295 294 293 292 292 292 292 291 293 295 296 297 297 298 299 300 301 302 303 303 301 301 299 299 297 297 298 298 300 299 300 300 300 301 301 302 302 302 301 301 301 302 301 301 304 302 302 302 302 303 302 303 304 306 306 306 305 305 304 303 303 303 303 302 304 303 302 302 301 300 300 299 299 298 299 299 297 297 297
290 290 288 287 285 285 286 289 289 289 287 286 285 285 288 290 291 293 293 293 292 292 292 292 291 291 293 294 296 297 299 298 301 302 302 303 303 303 302 298 299 298 296 295 296 298 298 299 299 300 300 300 299 301 302 300 300 299 299 300 300 300 301 301 302 301 303 301 303 304 304 305 305 305 305 305 305 304 302 303 304 303 303 303 301 300 300 299 299 298 298 298 297 298 299 298 296
290 290 289 287 286 287 289 289 288 289 286 285 286 287 287 289 291 292 294 292 292 292 292 291 292 292 293 293 295 297 298 298 303 304 303 303 305 302 302 299 298 297 296 294 294 296 297 299 300 299 299 300 299 299 300 300 299 298 298 299 299 299 300 300 302 301 302 301 302 304 303 304 304 305 305 305 305 304 304 302 303 302 303 302 301 301 300 300 300 300 298 298 297 296 296 296 296
289 287 287 286 289 285 290 288 288 289 286 283 285 285 287 289 291 292 293 291 291 291 291 291 292 292 294 295 295 298 299 302 302 302 303 304 301 304 303 302 299 294 294 293 293 295 296 296 299 300 299 299 299 300 300 300 300 299 298 298 298 299 299 299 299 300 301 302 302 303 303 304 304 304 305 305 305 304 303 302 303 302 302 302 301 301 300 300 300 300 299 297 297 297 296 296 298
290 287 285 285 285 290 286 287 286 289 287 284 285 285 286 289 291 292 292 292 292 294 294 293 292 292 294 295 297 298 299 299 300 301 302 301 304 304 303 302 302 301 296 294 296 296 296 296 298 298 299 298 298 300 301 300 299 300 300 299 299 298 300 301 300 301 302 302 302 303 303 304 304 304 304 305 305 304 302 301 302 302 303 302 300 300 300 300 300 299 299 297 295 295 297 297 297
286 286 285 281 288 285 284 286 285 287 285 283 284 284 286 290 292 292 293 292 292 296 296 297 297 297 295 297 297 298 297 298 299 298 298 299 301 301 302 301 301 303 300 298 297 296 297 296 296 297 299 298 299 299 301 300 300 300 300 301 301 300 300 301 301 301 302 301 301 303 304 304 304 304 304 304 304 304 303 302 302 301 302 302 301 300 299 299 299 298 298 298 296 293 293 295 296
288 288 287 285 287 285 282 285 288 289 287 287 285 284 285 288 290 291 292 293 293 293 294 293 294 297 299 298 298 298 297 299 298 299 298 298 299 299 300 301 301 303 303 302 302 300 299 296 298 298 298 299 299 299 299 300 301 300 300 299 298 298 298 299 299 300 301 301 302 302 303 303 304 303 303 303 303 303 303 302 301 302 301 302 302 300 299 300 299 299 299 298 297 295 293 293 296
288 289 288 287 286 286 287 287 287 284 283 286 286 277 278 286 287 289 291 291 291 291 291 292 293 294 295 296 297 298 300 299 299 298 298 298 298 299 300 300 301 302 302 302 302 302 300 300 298 298 299 298 299 299 299 299 300 299 298 296 295 295 295 295 297 298 299 300 301 302 302 303 303 303 303 303 302 302 302 302 301 301 300 300 301 300 300 298 299 299 299 299 297 296 295 292 292
281 283 287 288 288 288 287 286 285 279 278 287 287 279 276 285 286 288 290 290 290 293 291 291 293 294 295 296 296 296 297 298 300 299 297 297 299 299 300 300 300 300 300 301 301 301 301 301 299 298 297 297 300 299 299 299 299 299 299 298 296 295 295 296 297 299 300 300 301 300 302 302 302 303 302 303 303 302 302 302 301 301 300 300 300 300 298 299 299 299 300 298 298 298 296 293 293
281 285 286 288 288 288 288 286 284 279 286 289 288 283 277 279 285 289 291 288 289 289 291 292 293 293 296 296 296 295 298 297 299 298 297 296 298 298 298 299 300 299 300 301 302 302 302 301 299 298 298 297 299 299 299 299 299 298 297 297 298 296 296 297 299 299 301 301 300 300 301 301 302 302 302 301 302 302 301 301 301 301 300 299 299 300 298 298 299 299 300 300 298 298 297 295 293
286 285 288 288 287 288 287 285 283 283 282 278 283 287 280 276 285 288 288 287 288 288 290 291 293 293 294 295 296 296 298 298 300 299 297 297 297 298 298 298 298 299 300 300 301 301 302 300 300 298 298 297 298 298 298 298 298 298 298 298 297 299 299 300 299 297 298 299 300 300 300 300 300 300 301 301 300 301 300 300 300 300 300 299 298 299 298 298 297 297 298 297 297 296 295 295 294
288 289 289 288 288 288 288 282 283 282 279 276 280 285 277 276 283 287 289 287 286 288 291 291 293 294 294 295 294 297 296 297 299 299 297 297 298 298 298 298 298 299 299 300 300 300 301 301 300 297 297 297 298 297 297 297 297 298 298 298 298 298 297 299 298 297 297 296 297 297 297 299 299 299 299 299 300 300 300 299 300 300 300 299 298 298 296 296 296 296 296 296 296 295 294 295 294
289 289 288 287 286 284 284 283 282 280 275 278 281 285 281 275 282 285 286 291 289 289 290 291 294 295 295 295 295 297 297 297 297 296 297 298 298 299 297 296 298 298 299 299 300 300 301 302 300 300 298 297 296 297 297 297 296 297 297 297 298 298 298 297 296 297 297 296 296 296 297 297 298 299 298 299 300 300 299 299 298 298 298 298 297 296 296 296 296 296 296 295 295 296 295 294 293
288 286 285 282 282 281 281 280 280 276 273 280 278 283 284 274 276 288 290 290 290 290 290 291 291 293 295 296 295 296 296 297 297 295 296 297 297 297 296 297 297 298 298 298 299 300 300 300 300 300 300 299 297 297 297 298 297 297 297 297 298 298 298 299 297 297 297 296 296 296 297 297 297 298 298 297 298 298 298 297 296 297 297 296 297 297 296 297 297 296 296 296 295 294 293 293 292
286 283 283 278 277 279 276 278 274 273 275 279 280 284 279 277 283 288 290 292 291 291 293 292 292 292 295 297 296 296 295 296 297 296 296 297 297 296 296 296 296 297 297 298 299 299 299 299 300 299 299 299 299 298 296 297 297 297 297 297 298 298 298 297 297 297 297 297 297 296 296 296 295 296 295 297 297 297 297 297 296 295 295 295 295 295 295 295 295 295 295 294 294 293 294 293 291
284 282 281 278 274 273 269 273 276 277 279 279 279 283 275 280 285 289 290 292 292 292 294 293 293 293 293 293 296 297 295 295 297 297 297 297 297 297 297 297 298 298 298 298 297 298 297 299 298 298 297 298 298 299 298 297 297 297 297 297 297 296 296 297 297 296 297 297 297 297 296 296 297 296 297 296 297 297 296 296 296 296 295 295 295 295 294 294 294 293 293 293 292 292 292 292 292
283 287 283 280 278 275 270 274 272 273 277 278 279 276 275 276 282 289 291 292 292 292 294 292 293 294 294 293 292 292 298 297 296 296 298 298 299 298 298 298 298 298 298 298 296 297 296 296 297 296 296 296 297 298 298 298 298 298 298 298 298 297 297 296 296 298 297 298 298 297 298 298 296 296 297 297 296 296 295 295 295 295 295 294 294 294 296 293 293 293 292 292 292 292 292 291 291
285 285 285 280 279 280 276 279 276 274 275 275 275 275 279 282 288 291 293 292 291 291 291 292 291 292 292 292 291 292 293 296 298 297 298 298 298 298 299 298 298 298 297 297 296 296 297 297 296 296 296 296 296 296 296 297 297 297 297 297 297 298 297 297 298 297 297 297 297 296 297 297 296 296 297 296 295 294 295 295 294 294 294 294 293 293 292 292 292 292 291 291 291 293 291 290 291
282 281 280 281 282 279 278 275 275 275 274 272 279 280 283 288 289 291 291 290 290 291 290 289 290 291 292 291 292 291 292 292 294 297 297 298 298 298 299 298 298 298 297 297 297 297 297 297 295 295 295 295 295 295 296 296 296 295 296 296 296 296 296 296 296 296 296 295 295 296 295 294 294 295 297 294 294 293 293 293 293 293 293 293 292 292 292 291 292 291 289 290 290 289 289 290 290
282 279 281 284 282 280 279 273 276 275 272 275 278 275 276 280 278 288 287 288 289 289 290 290 292 293 293 292 293 294 294 294 295 298 299 299 299 299 299 299 299 299 298 297 297 296 297 296 295 294 294 294 294 294 294 294 294 295 294 295 295 295 295 295 294 295 294 294 295 294 293 294 293 294 295 295 293 292 292 293 292 292 291 292 291 290 290 290 290 289 290 289 289 289 288 287 288
284 282 285 281 278 278 280 275 268 270 269 272 276 277 277 279 282 285 287 286 288 289 290 290 290 293 293 294 295 295 295 296 296 296 299 300 299 299 299 299 299 299 299 298 297 297 296 295 295 294 294 294 294 294 293 294 294 295 295 294 293 293 293 293 293 293 293 293 293 292 292 293 292 292 293 291 291 291 290 291 291 290 290 290 289 289 289 289 288 289 288 288 287 287 286 287 287
284 285 283 285 280 278 275 278 275 276 271 271 271 278 276 285 283 285 287 288 289 290 290 291 292 291 293 293 295 297 298 297 297 297 298 300 300 299 299 299 299 298 298 298 296 295 295 295 294 294 293 292 292 292 292 293 292 293 293 292 293 292 292 292 292 292 292 291 292 292 291 291 291 291 291 291 291 290 290 289 288 289 289 288 288 287 287 287 287 288 288 288 287 286 286 286 285
279 280 280 281 281 285 281 278 276 275 272 272 272 272 278 285 287 288 288 288 289 290 290 291 291 291 291 293 296 296 297 297 297 298 297 298 299 299 299 299 299 298 297 297 296 295 294 294 293 292 292 292 291 292 292 292 292 292 292 291 291 291 291 291 291 291 291 290 290 290 289 290 289 290 289 289 289 289 289 289 288 289 288 287 287 287 286 286 287 286 287 286 285 285 286 286 286
283 282 281 282 279 279 276 275 281 278 275 272 273 273 279 287 289 290 289 289 290 290 290 290 290 290 290 292 293 295 295 295 295 296 296 298 298 299 298 298 297 297 297 297 296 294 293 293 293 293 292 292 292 292 292 291 290 291 290 290 290 290 290 289 289 289 290 289 288 289 288 288 288 287 287 289 288 288 286 288 287 287 287 286 286 286 285 287 286 286 285 288 286 285 285 284 284
Wind_Speed
10 9 8 6 5 5 5 3 3 2 2 5 4 4 0 1 4 4 4 3 3 2 1 2 4 2 2 2 2 1 1 1 1 1 2 1 2 7 5 7 8 9 9 8 8 9 9 13 16 16 15 14 13 13 12 10 10 9 8 7 6 4 3 3 1 2 2 1 0 1 2 2 2 0 3 3 2 2 4 5 4 5 5 6 6 7 7 8 7 9 9 10 10 11 12 12 12
8 9 9 6 4 2 3 3 2 3 3 3 7 1 1 2 2 4 5 3 1 4 2 4 2 4 4 2 0 3 1 3 3 3 2 4 2 6 6 8 8 10 7 8 8 8 7 9 16 16 15 14 14 13 12 11 10 9 8 7 6 5 4 3 3 1 2 0 1 0 1 1 1 1 2 2 3 2 2 4 5 4 5 5 4 5 6 6 7 8 9 9 10 10 11 11 11
8 8 8 5 4 4 3 1 2 3 3 4 1 3 3 3 3 5 7 8 8 7 5 4 4 3 1 2 2 0 1 4 5 4 3 5 7 4 7 7 7 7 9 6 8 8 7 8 15 15 15 14 14 13 12 11 11 10 9 8 7 6 5 3 3 3 1 1 1 1 2 3 2 2 2 3 3 2 2 3 4 3 4 3 4 4 5 6 7 7 7 9 9 10 10 10 10
7 8 7 5 2 3 2 1 3 4 2 2 3 2 4 4 5 11 10 7 5 5 3 2 2 1 0 2 2 2 2 2 6 5 3 5 3 9 9 9 9 6 6 7 7 7 6 10 16 15 15 15 14 13 13 12 11 11 10 9 8 7 6 5 3 2 1 2 2 2 3 3 3 3 3 2 2 1 2 0 3 3 3 4 4 3 4 5 5 7 7 7 8 9 9 9 9
6 5 8 4 2 2 1 2 3 2 3 3 2 1 0 5 10 8 7 5 4 3 2 2 1 1 1 2 2 0 1 5 6 3 3 4 6 10 10 9 8 7 6 6 8 7 6 15 16 15 15 15 14 14 13 13 12 11 11 9 8 8 7 5 5 3 4 3 3 4 3 3 3 3 2 2 2 1 0 1 1 2 3 3 3 4 3 5 6 6 7 7 7 8 8 8 8
8 8 5 2 1 0 1 2 3 5 1 2 2 1 3 7 10 8 7 5 3 3 3 4 1 2 1 1 2 2 1 1 1 4 4 4 9 11 11 9 8 7 6 6 7 7 6 16 17 16 15 15 15 14 14 13 12 12 11 10 10 8 7 7 5 5 5 5 5 4 4 3 3 3 3 2 2 2 1 0 1 1 3 2 2 2 4 4 6 6 6 7 7 7 7 7 7
3 3 2 2 1 1 2 3 4 3 0 2 3 2 3 4 9 9 7 5 2 4 3 1 3 1 1 1 1 4 2 3 0 0 3 5 9 9 10 8 8 8 8 6 5 7 7 17 18 16 16 16 15 14 14 13 13 12 12 11 10 9 8 7 6 6 6 5 5 5 5 4 3 3 3 2 2 2 2 1 2 0 2 1 1 2 2 4 4 5 5 6 6 6 6 6 7
3 0 0 2 2 2 3 4 5 4 0 3 1 3 1 3 7 6 5 3 3 2 2 2 3 1 2 3 2 1 5 2 6 6 7 5 8 10 8 7 8 7 8 6 5 5 11 17 18 17 16 16 15 15 14 14 13 13 13 12 11 10 9 8 8 7 7 6 6 6 5 4 4 3 3 3 3 3 2 3 2 0 2 1 1 1 2 2 3 4 5 5 6 5 6 6 6
3 3 1 1 3 3 3 4 5 0 4 3 3 3 4 4 4 5 6 2 6 2 8 3 2 2 1 4 3 3 2 7 8 8 7 6 8 9 7 7 8 8 8 7 5 4 9 14 17 17 16 16 16 15 15 14 14 13 13 13 12 11 10 9 9 8 7 7 7 6 6 5 4 4 4 3 3 3 3 3 2 2 1 2 1 1 2 2 2 3 4 5 4 5 5 5 6
2 1 1 1 3 4 3 5 4 1 2 2 5 5 3 3 3 4 6 7 4 3 6 5 4 4 1 2 2 3 4 9 8 6 6 7 8 7 7 7 7 9 8 7 6 6 5 12 16 16 15 16 16 15 15 15 14 14 13 13 13 12 11 10 9 9 9 8 8 7 6 5 5 5 4 4 3 3 3 3 3 2 2 1 2 1 0 1 2 3 3 3 4 4 5 5 6
2 3 0 1 3 4 4 3 2 2 4 2 3 5 4 3 4 4 5 4 4 4 6 7 2 7 4 3 3 0 7 7 9 9 7 7 7 7 7 7 7 8 8 7 6 5 7 7 14 15 13 14 15 15 15 15 15 14 14 13 13 12 12 11 10 10 10 9 9 8 7 7 6 5 4 4 4 4 4 4 3 2 2 2 2 1 1 1 1 2 2 3 3 4 5 5 5
2 2 2 2 4 3 3 2 4 4 3 3 3 4 3 5 3 4 6 5 4 6 4 7 1 3 4 2 2 3 5 8 7 8 8 8 6 6 6 5 5 8 8 8 6 5 7 7 7 11 13 12 12 14 15 16 15 15 14 14 13 13 12 12 11 10 10 10 9 9 8 8 7 6 5 5 4 4 4 4 4 3 2 3 2 1 0 0 1 2 2 2 3 3 4 5 5
3 4 3 3 3 3 3 5 1 2 2 2 5 2 4 4 4 3 4 3 7 5 5 9 3 0 2 3 2 6 6 6 5 10 9 7 6 5 6 5 5 7 8 8 7 6 8 7 8 8 8 12 11 11 12 14 16 16 15 14 13 13 13 12 11 11 11 11 10 10 9 8 8 7 6 6 5 5 4 4 4 4 3 3 2 1 1 1 1 1 2 2 2 2 3 4 4
2 2 3 3 5 2 3 4 2 1 1 3 4 5 4 3 3 2 2 4 5 5 1 13 2 0 3 3 1 4 3 5 4 8 7 7 5 4 5 5 5 5 7 7 7 6 7 8 8 7 8 8 6 8 10 12 13 15 15 14 14 13 13 12 12 12 11 11 11 10 10 9 8 8 8 7 7 6 6 5 5 5 4 4 3 3 2 2 1 1 1 1 1 1 2 3 4
2 3 1 2 4 4 2 2 1 1 1 2 2 5 3 1 2 1 2 4 3 3 1 6 3 3 3 9 1 3 3 4 4 4 6 5 5 4 3 3 4 3 6 7 6 6 6 7 8 7 7 7 7 6 5 7 11 12 13 13 13 13 12 12 11 11 11 11 11 10 10 9 9 9 9 8 8 7 7 7 7 7 6 5 5 4 3 3 2 2 2 2 1 1 1 2 4
2 3 1 2 4 4 0 2 0 1 1 2 3 4 4 3 2 1 1 2 1 1 4 3 5 4 2 2 2 3 4 4 3 4 4 5 5 3 2 1 2 2 3 7 6 6 6 6 7 8 8 8 7 6 6 6 9 11 11 12 11 11 11 10 10 9 9 9 9 9 9 7 8 7 10 7 9 9 9 7 8 8 7 6 5 5 4 4 4 3 3 3 2 3 3 4 5
1 0 2 3 5 4 0 1 1 1 1 1 0 3 3 3 2 1 2 0 1 2 4 3 5 3 6 1 6 7 4 4 5 5 4 3 5 3 2 2 2 3 3 4 5 6 6 7 7 7 7 8 8 7 7 7 8 12 10 11 11 11 10 10 9 9 8 7 7 7 8 5 4 5 6 5 9 5 7 8 7 7 7 7 7 6 6 6 5 5 4 5 4 3 3 5 7
1 2 3 5 5 1 4 3 3 2 1 2 3 3 3 3 2 2 2 2 4 4 4 4 5 7 7 3 7 8 7 6 5 7 5 4 4 4 5 4 5 6 6 5 5 5 7 7 8 7 7 9 8 8 6 7 7 12 8 6 6 8 9 9 7 5 6 4 7 6 4 5 5 5 6 8 6 7 7 10 8 8 9 9 8 8 8 7 7 6 6 6 6 5 5 3 4
2 2 3 5 3 1 3 4 4 3 2 2 3 2 3 2 7 2 1 3 5 6 9 5 7 8 9 8 5 7 7 7 7 6 7 8 8 8 7 6 7 6 7 7 7 9 7 7 7 8 7 8 9 8 7 6 7 8 9 8 7 8 7 7 5 6 5 5 5 5 5 5 5 6 6 8 7 10 9 10 10 9 9 9 8 9 8 8 8 8 8 7 6 6 3 3 5
3 2 3 1 1 1 3 4 4 4 3 2 2 1 2 2 0 3 2 3 5 12 7 6 11 13 10 10 9 7 8 8 9 7 8 8 8 8 7 8 8 9 9 9 9 9 9 9 10 9 8 9 9 7 7 7 6 7 8 8 7 7 7 7 6 6 6 6 6 6 6 6 6 7 8 14 11 8 8 12 11 10 9 8 9 6 7 8 10 10 9 9 6 4 3 5 6
1 1 2 1 2 3 2 3 3 3 4 3 2 2 1 1 1 3 2 4 9 9 9 9 12 13 10 10 11 11 10 8 8 8 7 8 8 8 7 9 9 10 9 7 7 9 11 11 9 9 9 8 9 8 7 7 6 7 7 7 7 7 7 7 7 7 6 7 7 6 6 6 7 7 5 5 7 7 5 5 6 6 5 5 7 4 5 5 6 6 4 5 4 5 5 6 6
0 3 1 1 2 2 2 2 3 3 2 2 1 1 2 2 1 4 4 7 7 4 5 11 10 4 4 3 6 12 11 10 10 9 10 9 9 8 7 6 7 9 8 8 10 9 11 11 11 9 9 9 10 9 8 7 7 7 7 8 7 7 8 8 7 7 7 8 7 7 7 7 7 7 5 6 6 6 6 6 6 6 6 6 6 6 6 6 5 6 6 6 6 6 7 7 5
2 1 1 3 1 2 1 2 2 2 2 2 1 1 3 1 3 5 8 14 10 2 2 3 4 4 3 1 2 6 11 12 11 12 11 11 11 10 9 8 7 7 9 10 9 9 11 11 11 9 10 10 10 9 7 7 7 7 7 7 8 7 7 8 8 7 8 7 7 7 7 7 6 6 6 5 7 7 7 7 7 7 7 7 6 7 6 7 7 7 7 7 7 6 6 5 4
2 3 1 1 2 1 2 1 1 1 2 2 3 3 3 2 6 4 11 16 16 8 0 3 2 3 5 3 2 4 5 6 9 12 13 13 12 13 11 9 8 6 6 9 9 9 10 13 13 11 11 11 10 10 8 8 7 7 7 7 7 8 7 7 7 7 7 8 7 7 7 7 7 6 5 6 6 6 6 6 7 7 7 8 7 7 7 7 7 6 5 5 6 5 5 4 4
2 3 1 1 1 1 1 1 0 1 3 3 3 3 7 6 7 4 11 13 11 11 10 7 4 5 5 5 6 6 6 6 7 7 6 8 10 11 10 9 8 7 7 7 8 9 11 12 13 13 11 12 10 10 10 8 8 7 7 7 7 7 7 7 7 7 7 7 8 8 6 7 7 7 7 7 7 7 6 6 7 7 7 7 7 8 7 7 6 6 6 5 5 5 5 5 5
1 2 1 1 1 1 1 2 2 2 2 1 3 8 7 10 7 11 21 16 11 9 7 8 8 7 6 6 6 6 8 9 8 8 9 7 6 8 10 11 10 10 10 7 7 8 8 11 13 14 13 12 11 10 10 9 8 9 9 8 7 7 7 7 6 7 7 7 7 8 8 8 7 7 7 7 7 7 7 6 7 6 6 6 7 7 6 7 7 6 6 5 6 6 6 7 6
0 2 2 1 1 1 2 2 2 2 2 1 2 5 6 1 4 9 5 13 9 8 9 7 6 6 6 6 7 7 8 9 9 8 7 7 7 8 8 8 9 10 8 8 7 8 7 10 11 12 11 10 9 11 10 10 9 9 9 8 7 8 7 7 7 7 7 7 7 8 8 8 7 7 7 7 6 7 7 7 7 6 6 6 7 7 6 6 6 7 7 7 7 7 7 6 7
2 2 1 3 2 3 2 2 3 0 3 5 5 10 7 2 1 13 8 3 4 4 5 5 6 6 7 8 8 7 7 7 7 7 8 9 9 8 7 8 8 7 8 9 7 6 8 8 10 11 11 10 11 10 9 10 10 9 9 8 8 8 8 7 7 7 7 7 7 7 8 8 7 7 6 6 6 6 6 7 6 6 7 7 7 6 7 6 7 6 6 6 6 5 5 5 6
1 2 2 2 3 2 5 4 3 3 1 4 3 6 8 6 8 18 11 3 4 5 5 6 8 8 8 8 8 7 8 6 5 5 6 5 4 5 7 6 6 7 6 6 6 5 8 8 9 10 10 9 11 11 9 9 8 8 8 9 8 8 8 8 8 7 7 7 7 7 8 8 7 7 7 6 5 6 6 6 6 7 7 7 7 6 6 5 5 5 4 3 3 3 4 5 4
0 1 2 3 1 4 5 3 3 4 2 6 2 4 2 9 19 12 3 7 5 3 5 6 6 7 8 8 7 5 4 4 5 6 5 5 4 4 4 3 5 6 6 5 5 6 5 4 6 6 9 10 10 9 8 8 8 7 7 7 7 8 7 8 8 7 7 7 7 7 7 8 7 7 6 6 6 6 5 6 6 6 7 6 6 7 7 6 6 5 5 4 6 6 6 6 6
1 1 3 2 1 3 3 1 4 2 3 6 2 2 8 8 10 11 4 6 7 6 7 7 7 7 5 4 5 4 4 5 5 6 6 4 2 0 0 2 3 1 2 4 6 5 5 4 5 4 7 7 8 8 7 7 6 7 7 7 7 8 8 8 7 7 7 7 7 7 7 7 7 7 7 7 7 7 7 6 6 7 6 5 6 7 7 5 6 6 7 7 6 7 7 7 7
2 1 4 2 4 1 2 3 1 2 1 4 2 2 8 5 2 5 6 6 6 6 6 6 6 5 5 4 5 5 5 5 5 3 3 3 3 1 1 1 1 3 3 2 2 4 5 5 5 5 5 6 8 8 6 7 7 7 7 7 7 7 7 7 7 7 7 7 7 7 8 8 8 8 8 7 7 7 7 7 7 6 6 6 7 6 6 7 7 7 7 7 7 7 7 7 7
2 5 4 2 4 4 1 3 0 4 1 2 6 5 8 8 3 4 4 5 6 7 7 7 7 6 5 5 5 5 5 2 3 5 4 4 3 3 2 2 3 3 2 2 3 3 3 5 5 5 5 6 6 6 6 5 6 6 6 7 7 7 7 7 7 7 7 7 7 7 8 9 8 8 7 7 7 7 7 7 7 7 7 7 7 6 7 7 6 7 7 7 7 7 6 6 6
3 3 3 3 4 1 2 2 3 2 2 2 6 5 9 11 8 5 5 7 8 8 8 7 6 5 5 4 3 4 4 4 4 5 5 4 3 2 1 1 1 2 2 2 4 5 5 4 5 5 4 5 5 7 6 5 5 5 6 7 5 7 6 6 7 7 7 7 7 7 7 8 8 8 8 7 7 7 7 7 6 7 7 7 7 6 7 6 6 6 7 6 6 5 6 5 6
1 1 4 5 2 4 4 1 3 1 5 4 3 7 15 15 13 12 10 9 9 10 8 6 6 5 4 5 5 5 4 4 3 5 5 4 2 2 1 1 1 1 1 2 1 4 5 4 6 5 5 6 5 6 5 5 4 4 4 5 6 5 6 6 6 7 7 7 7 6 7 8 8 8 7 7 7 7 6 7 7 6 6 7 7 6 6 6 6 6 6 5 5 7 7 6 6
2 3 3 4 5 4 1 1 1 0 1 5 6 7 10 10 9 10 8 6 8 10 8 7 5 4 4 4 4 4 3 2 4 5 4 3 3 1 1 2 2 3 3 3 4 3 4 5 5 6 5 6 5 6 7 6 6 6 6 4 5 5 5 6 5 7 6 7 6 7 7 7 7 7 7 7 7 7 7 7 7 5 6 7 7 7 7 6 7 5 6 6 5 5 5 5 4
3 4 4 5 5 6 2 2 1 1 2 6 6 6 8 12 12 13 12 6 7 8 7 5 5 4 5 5 5 5 5 3 4 5 4 3 3 3 2 2 2 4 3 4 4 5 4 5 6 7 6 5 7 7 7 8 7 6 4 6 6 6 6 5 6 5 6 7 6 6 6 7 7 8 8 8 8 8 7 6 6 5 6 7 7 8 7 7 6 7 6 5 6 5 4 4 4
4 4 5 7 4 6 1 1 1 0 2 4 5 6 9 12 13 15 11 6 8 6 5 5 4 4 5 6 5 5 4 4 4 4 4 4 4 4 4 2 3 4 3 4 4 5 5 5 6 6 7 6 7 6 7 6 6 6 6 6 5 6 6 7 7 7 7 5 6 6 6 6 6 7 8 8 8 8 7 7 7 7 6 7 7 6 6 6 6 6 5 4 4 7 5 4 4
3 4 4 4 4 1 2 1 1 1 1 7 4 9 13 14 15 13 8 6 2 0 1 2 3 6 6 5 5 5 4 4 4 4 5 5 4 3 4 4 1 1 4 4 3 5 5 5 5 5 7 6 6 6 7 6 5 5 5 4 7 4 5 7 6 6 7 7 6 6 7 6 7 7 8 8 8 7 7 7 7 7 7 7 7 7 6 7 7 7 6 7 4 3 5 4 5
3 4 4 5 1 1 4 0 2 2 3 3 5 7 13 13 11 8 1 0 1 1 0 2 1 2 3 5 6 6 5 5 5 5 5 5 5 5 4 3 4 3 4 4 3 3 4 4 5 5 6 6 6 5 6 6 5 5 5 2 6 4 3 6 6 7 7 7 7 7 7 7 7 7 7 7 6 6 7 8 7 7 7 8 8 8 7 7 6 6 6 6 4 4 3 5 4
4 6 4 4 2 1 2 3 5 0 1 1 6 6 7 6 2 1 2 0 1 3 2 3 4 4 0 2 2 3 6 5 5 5 5 5 5 5 5 3 4 4 3 3 2 4 3 5 5 5 4 5 5 5 5 5 5 5 4 4 3 3 2 3 4 3 5 6 5 6 7 6 7 7 7 7 7 7 7 7 7 7 7 7 7 7 7 8 7 6 7 6 6 6 5 3 4
2 2 2 1 2 3 3 4 6 3 2 1 2 8 4 3 5 7 4 1 3 3 5 5 6 5 5 4 4 3 2 3 5 5 6 5 4 5 4 4 4 3 4 3 1 1 1 1 4 4 2 4 4 5 5 4 5 6 5 5 4 3 4 4 7 8 6 7 8 5 5 6 6 6 6 7 7 6 7 7 6 6 6 7 7 7 6 5 6 7 7 7 6 5 6 4 3
1 2 0 2 1 0 2 4 4 3 1 1 1 1 9 2 7 6 5 2 5 1 4 5 5 6 6 6 5 6 6 4 2 2 4 5 4 4 5 4 3 3 4 3 3 2 1 1 1 3 3 3 4 5 5 4 5 5 6 6 5 6 6 5 5 6 7 7 6 6 7 7 7 7 6 7 7 7 6 5 5 5 5 5 5 6 6 6 5 6 6 6 7 6 5 6 5
3 1 1 1 0 0 1 1 1 4 1 4 4 5 3 10 6 6 1 2 7 5 6 6 5 5 7 6 6 6 7 6 6 5 5 5 5 6 5 5 4 3 4 2 2 2 2 2 3 3 2 3 4 4 5 5 6 5 5 5 6 7 7 7 9 9 7 8 7 7 7 7 6 6 6 6 6 6 5 6 6 5 5 5 6 6 6 4 4 4 6 7 6 6 6 7 5
1 3 2 1 1 0 0 1 3 3 2 7 1 2 0 5 6 1 2 3 7 5 7 6 6 6 5 6 6 6 7 7 7 7 6 6 6 5 4 5 4 4 3 2 1 2 1 2 2 1 2 2 4 4 4 4 4 5 6 5 5 5 4 3 3 4 5 5 6 6 6 6 6 5 6 6 6 6 6 6 6 6 6 5 4 5 4 4 5 5 5 5 5 5 5 5 4
0 0 1 0 1 0 1 1 1 1 1 6 4 5 4 6 6 5 1 1 6 5 2 4 7 7 6 6 5 6 5 6 6 6 5 6 5 5 4 4 4 4 4 3 2 2 2 3 3 4 2 2 4 3 4 5 4 3 5 5 5 4 4 1 2 4 4 4 4 5 5 7 6 6 5 5 5 5 6 5 5 6 6 5 5 4 4 4 4 4 4 5 4 5 4 4 5
1 1 1 1 1 2 0 1 2 0 2 9 7 7 3 4 3 6 3 3 2 1 2 1 1 2 5 5 6 6 6 5 5 5 5 5 5 5 4 4 4 4 3 2 3 2 2 2 4 3 3 3 4 4 3 5 5 4 3 4 5 5 4 4 3 3 4 4 4 4 4 5 6 7 6 5 6 5 5 5 5 5 4 4 4 4 4 4 4 4 3 4 4 5 5 4 4
1 1 1 2 2 1 0 1 2 1 4 2 3 0 1 5 4 5 0 0 0 1 0 0 2 3 3 5 5 6 6 5 5 4 5 5 5 4 4 4 5 5 4 4 4 3 3 3 3 4 2 3 3 3 3 4 4 4 3 3 4 4 3 3 4 4 5 5 5 5 5 5 5 6 6 5 4 4 4 4 4 4 4 4 4 4 4 4 4 4 4 5 4 4 4 4 4
2 3 3 0 2 0 1 1 1 4 7 0 0 2 2 5 9 8 12 14 6 4 2 1 0 1 1 2 5 4 5 6 6 5 5 5 6 6 5 5 5 5 6 5 5 4 4 4 4 6 4 3 4 3 4 4 4 4 4 2 2 2 3 3 4 4 3 4 5 4 5 5 4 4 5 6 5 5 5 5 4 3 3 3 4 4 4 4 4 4 5 4 5 4 5 4 3
1 0 1 1 0 2 4 4 3 2 0 3 2 0 1 4 8 9 14 13 8 5 1 1 1 0 2 2 2 1 5 6 6 5 5 6 6 6 6 6 6 5 5 6 5 5 4 4 4 5 5 4 4 3 4 3 3 4 4 4 4 3 3 2 1 2 1 1 2 4 4 5 5 5 5 4 5 5 4 4 5 4 4 4 4 4 3 3 3 3 3 4 3 3 3 4 4
4 0 1 0 1 1 2 1 4 3 1 0 4 1 5 3 4 2 0 2 1 0 0 0 1 0 0 2 4 4 1 2 4 5 5 6 6 6 7 6 6 6 6 5 5 5 5 5 4 5 5 4 4 4 3 4 3 1 2 2 2 2 2 3 3 2 3 2 1 2 1 1 2 3 5 5 4 4 3 3 3 3 4 4 4 4 4 3 2 1 2 3 3 2 2 3 2
1 1 2 1 2 2 3 1 3 3 4 1 1 4 3 6 5 10 11 10 7 5 2 0 1 1 0 1 3 4 4 3 4 4 4 5 5 5 5 5 6 5 6 5 5 5 5 5 5 5 6 5 4 4 3 2 3 3 1 3 2 1 1 1 1 2 2 2 2 2 1 2 3 4 5 5 4 4 3 3 3 2 4 4 4 4 3 3 3 2 2 3 2 2 3 3 1
1 3 1 2 1 1 3 2 1 1 1 7 3 5 6 5 7 12 11 5 3 1 1 0 1 0 0 3 4 5 5 5 5 6 5 5 5 5 6 6 5 5 6 7 7 6 6 5 5 5 5 4 4 4 4 2 1 2 1 1 1 1 1 1 1 3 3 3 2 1 2 3 3 4 5 4 4 3 3 3 4 3 4 3 3 4 3 3 4 2 3 4 4 3 3 2 1
1 0 2 4 2 1 0 2 1 0 4 4 5 4 3 1 4 2 2 3 4 2 0 1 0 0 1 4 5 5 6 6 6 6 6 7 7 7 6 6 7 7 7 7 7 6 5 5 5 6 5 5 4 4 4 3 3 1 2 0 0 0 1 1 3 3 3 3 1 1 3 3 3 4 4 3 4 4 3 2 4 4 4 4 4 3 3 4 3 2 4 4 4 4 3 3 3
1 1 1 2 2 2 1 1 3 1 4 4 2 2 3 3 5 4 9 6 4 5 1 4 5 3 2 4 4 4 4 3 4 5 5 6 7 7 8 7 7 7 7 7 6 6 5 5 5 5 6 5 5 4 4 3 2 2 2 1 2 0 1 2 3 3 2 2 3 3 3 4 4 4 4 3 4 4 4 2 4 4 4 4 4 4 4 3 3 5 5 5 4 4 5 4 3
1 2 2 1 2 4 1 3 1 1 6 4 4 1 4 1 5 5 2 3 5 9 11 11 12 9 7 5 5 4 1 3 4 5 5 5 6 7 8 8 8 8 8 7 7 6 6 5 5 4 4 4 4 4 4 4 3 3 2 2 1 1 1 2 3 3 3 3 4 4 4 4 4 4 4 4 4 4 4 4 4 5 4 4 4 4 4 3 4 4 5 5 2 3 5 5 4
2 1 1 1 2 2 1 2 2 3 4 4 5 7 4 6 3 0 1 5 6 8 10 9 9 7 5 5 3 2 2 3 3 5 5 6 6 7 7 6 7 6 6 6 7 8 7 6 6 6 7 6 5 5 4 4 4 4 4 4 4 2 2 2 2 2 4 4 3 3 4 4 4 4 3 4 4 4 5 5 5 5 5 5 4 4 4 4 6 6 5 4 3 4 6 5 5
3 6 6 7 3 0 0 8 1 1 1 3 2 11 1 3 3 8 1 5 7 6 6 7 8 9 7 6 6 4 4 5 5 5 5 6 5 6 6 5 5 5 6 8 7 6 7 7 7 7 6 6 6 5 5 4 4 4 4 4 4 3 2 2 3 3 4 4 4 4 4 4 4 3 4 5 5 4 5 5 5 5 5 5 4 4 5 6 6 6 5 4 5 6 6 5 5
Wind_Direction
296 285 265 247 251 250 278 227 251 171 222 244 275 222 128 110 133 132 97 132 134 36 113 72 74 18 28 66 20 269 224 355 98 190 218 188 195 162 123 106 127 127 136 138 152 161 168 175 177 178 178 176 178 179 173 172 171 167 164 159 150 151 146 169 202 317 52 67 23 134 23 323 355 283 311 317 87 305 350 36 51 27 16 32 20 33 14 38 34 42 37 36 42 36 37 36 36
293 295 292 262 239 270 231 193 260 178 200 271 253 166 142 99 205 138 144 156 37 123 68 76 43 94 89 6 257 329 273 186 65 124 109 123 156 107 124 132 140 139 140 142 145 160 167 175 180 180 179 176 179 176 176 172 171 167 166 159 159 159 159 176 178 243 112 219 10 74 229 273 215 276 255 305 300 57 318 349 53 14 33 33 21 25 25 49 44 39 39 36 43 42 36 35 34
294 301 291 251 234 200 301 322 252 223 189 245 358 48 138 140 159 140 127 91 94 97 77 67 67 70 275 214 177 60 27 112 119 111 117 158 129 166 144 139 144 143 139 139 147 156 169 177 181 182 183 177 177 177 175 176 171 169 165 162 169 168 174 167 167 189 174 182 200 191 226 213 239 221 236 244 322 330 67 325 31 33 34 358 24 29 23 39 51 48 40 36 39 43 39 34 32
277 266 261 286 261 182 255 186 244 280 273 222 103 118 204 153 93 77 80 89 96 108 119 115 134 9 334 130 53 311 271 183 139 139 122 171 199 150 151 146 143 140 134 141 147 160 168 177 182 185 186 180 179 178 177 178 174 170 168 170 171 171 170 167 171 194 168 181 203 226 215 229 217 211 229 240 236 306 300 49 347 31 12 15 19 14 28 46 52 53 43 38 39 41 37 35 32
265 257 241 280 293 252 264 239 292 314 278 2 83 258 6 118 99 100 87 104 115 115 123 127 96 139 341 336 7 313 57 94 130 129 94 113 112 138 147 142 148 138 146 153 149 160 177 167 182 187 186 183 184 179 179 177 177 174 173 174 175 172 170 171 174 184 186 197 204 220 230 225 202 217 221 222 190 293 170 13 330 1 56 16 5 34 10 39 41 44 44 40 35 38 40 35 33
241 255 216 215 270 82 326 297 246 240 279 311 69 12 340 86 106 106 113 101 98 109 40 142 25 96 177 174 180 221 26 192 176 97 115 147 138 140 146 144 149 147 150 162 158 161 173 163 178 187 186 187 184 182 181 181 181 179 178 176 175 177 173 171 178 187 190 197 210 215 223 209 211 214 213 198 198 184 198 132 351 293 60 28 33 13 21 30 34 38 40 39 37 32 37 39 33
283 314 200 238 250 107 244 244 257 250 223 272 95 99 4 92 111 113 114 98 47 64 4 155 104 29 348 180 149 235 146 156 331 46 87 141 126 141 143 153 147 152 155 164 168 166 159 161 175 186 187 187 184 185 184 185 184 184 182 177 176 178 173 177 181 189 195 204 206 213 207 205 211 205 200 193 188 172 155 175 171 303 64 69 55 36 14 35 24 29 36 36 36 36 35 35 36
249 212 359 233 246 148 227 246 252 257 111 51 131 122 146 98 124 131 141 137 165 146 186 27 35 70 274 342 242 195 179 166 120 117 108 125 141 137 152 156 154 152 157 168 164 165 148 163 173 184 188 187 187 187 186 188 190 187 183 181 179 177 179 181 186 190 198 204 208 208 203 206 198 199 193 192 186 167 169 178 162 13 119 130 103 50 51 22 26 27 17 35 40 36 37 33 33
236 215 107 306 259 204 252 242 245 194 121 125 69 71 13 123 148 138 158 72 114 197 143 175 180 117 250 161 232 185 194 131 122 127 130 142 143 147 156 164 163 151 157 168 160 133 150 167 174 182 189 189 189 186 188 190 192 189 188 185 180 178 182 183 187 193 200 203 206 205 204 198 198 193 195 189 186 173 166 159 155 151 158 144 108 87 25 36 18 15 1 39 35 32 34 31 30
249 162 225 248 316 277 242 234 211 57 106 52 122 158 153 151 166 163 158 114 151 159 157 146 158 224 61 262 282 158 168 126 122 122 132 147 143 155 162 168 168 155 154 165 159 137 154 169 175 183 190 191 192 191 191 191 193 192 191 188 183 182 184 187 190 195 199 202 204 205 201 198 194 194 191 194 189 179 156 150 156 160 158 126 131 119 325 42 20 1 6 25 47 30 27 31 29
263 161 238 299 239 262 255 344 82 161 112 160 99 115 162 180 181 176 164 129 125 146 106 130 182 233 291 267 254 22 127 134 138 154 156 148 153 164 163 170 169 152 157 160 154 146 148 167 178 186 191 194 197 193 193 194 195 196 194 191 187 184 186 188 193 196 199 205 207 206 203 199 196 189 191 193 188 180 169 167 165 167 154 143 133 125 124 85 6 355 8 23 40 32 28 27 27
281 205 124 251 275 278 329 6 302 114 111 155 117 141 133 178 191 172 169 158 162 138 148 157 185 171 215 260 262 160 151 156 169 149 155 142 158 168 159 171 163 151 156 156 150 157 145 164 178 189 192 199 202 198 198 198 199 198 198 194 190 188 188 190 194 198 202 204 205 206 204 203 199 192 185 189 196 191 187 182 182 171 166 155 155 177 163 308 343 349 19 24 34 34 31 25 20
259 323 276 266 254 286 326 306 252 51 149 185 140 152 151 169 190 181 163 187 151 166 180 190 113 46 230 195 177 133 159 175 174 144 145 145 158 170 149 160 173 154 147 153 152 166 151 163 177 187 192 198 206 208 205 204 203 202 200 198 195 192 191 192 195 200 203 206 207 206 207 204 201 193 189 193 199 200 189 192 189 189 175 184 183 185 215 323 306 342 5 17 46 38 26 18 12
319 313 1 285 325 255 253 274 292 244 88 77 83 123 184 159 201 199 147 204 165 192 161 177 197 188 271 347 262 165 152 131 128 126 133 146 145 156 157 147 171 160 145 152 160 172 159 162 177 184 188 195 203 214 216 212 209 206 203 201 198 196 194 194 197 202 206 208 208 209 209 206 201 195 191 196 199 206 196 195 204 206 197 194 206 209 229 238 276 307 342 351 347 38 8 359 352
298 316 281 282 284 306 214 212 356 271 115 112 135 147 164 213 147 278 233 193 209 77 85 155 164 87 258 170 269 97 127 84 88 85 127 139 136 138 154 125 153 156 147 159 164 177 173 162 172 180 185 190 199 203 210 220 218 213 205 203 202 199 197 197 199 204 207 210 210 210 210 207 201 196 197 198 198 208 203 207 205 213 212 211 209 225 219 231 236 267 277 302 300 272 307 331 320
275 338 254 276 262 244 203 206 119 327 88 81 193 139 157 92 11 188 304 36 91 265 142 184 191 194 332 11 122 139 95 108 86 99 99 117 105 111 108 110 136 190 170 164 173 186 175 175 169 176 181 188 194 196 202 207 218 218 212 205 204 202 199 197 198 200 205 209 209 208 210 208 198 196 201 201 200 205 206 211 222 217 219 217 224 223 231 229 239 247 260 260 276 270 272 293 296
226 144 290 225 280 235 175 250 118 31 143 85 254 170 162 164 151 322 73 5 296 198 194 203 193 256 263 134 137 114 108 93 131 100 88 104 114 128 134 186 174 187 208 189 180 185 188 178 181 173 182 185 189 194 195 199 203 211 214 210 204 203 200 197 194 197 198 202 205 206 205 201 188 190 206 197 205 196 203 213 227 213 222 225 227 234 231 238 242 247 247 258 258 257 248 270 282
209 221 212 259 259 12 351 18 13 248 64 139 202 206 195 147 145 194 90 275 252 282 244 228 237 226 234 218 138 133 143 150 152 138 157 172 165 162 184 194 190 198 193 201 205 195 191 190 188 180 180 184 184 191 197 194 189 195 204 207 203 202 202 195 193 188 188 190 195 193 192 193 207 201 196 198 197 195 202 205 212 217 223 227 228 231 234 236 240 243 249 253 256 254 252 265 280
228 273 248 266 22 6 337 340 31 352 46 129 180 216 252 64 147 164 153 218 202 241 247 240 239 240 229 237 156 147 159 150 163 179 175 180 185 189 190 188 195 196 194 193 201 205 196 191 187 192 184 182 185 189 197 189 182 179 191 198 201 200 197 194 189 191 189 193 194 194 193 203 207 225 202 189 191 190 195 195 203 210 219 226 231 232 236 238 241 242 246 249 248 249 253 262 262
224 239 280 291 357 357 25 28 34 37 333 116 125 175 290 101 295 78 236 271 205 216 230 213 232 239 224 221 205 175 172 168 174 189 193 195 189 200 188 188 195 204 201 194 195 197 197 192 196 193 187 182 185 191 191 190 181 167 181 190 190 194 196 194 196 194 195 195 197 194 193 202 214 213 223 186 181 181 187 194 195 204 212 222 227 229 237 241 240 243 243 240 242 237 235 246 241
65 249 236 338 37 347 41 24 27 14 20 5 66 46 294 189 155 147 225 237 255 247 217 205 216 227 227 215 201 196 181 182 185 192 206 201 204 202 204 195 193 199 202 183 183 194 199 195 190 195 189 184 186 189 189 191 184 169 176 183 186 184 190 190 191 199 193 195 199 196 194 197 210 215 167 161 167 172 170 183 198 202 208 220 218 217 221 225 230 229 238 240 219 220 226 233 234
10 250 349 82 22 297 56 67 31 355 354 286 84 167 231 107 175 203 227 233 233 219 228 209 221 216 180 180 195 190 194 189 195 199 208 215 212 209 210 218 199 187 184 186 193 191 195 196 191 191 189 189 188 189 191 187 181 185 180 181 183 184 179 187 186 189 198 194 192 199 199 200 205 203 167 168 187 183 198 194 194 197 202 211 197 209 214 220 204 204 211 205 216 219 218 217 222
290 247 30 66 109 266 56 44 9 334 337 274 233 360 12 250 260 205 214 230 232 159 158 64 79 115 122 117 124 163 189 198 197 202 204 213 221 223 216 211 211 195 182 197 187 190 188 192 192 186 191 190 190 188 188 183 190 190 184 180 178 189 179 179 185 186 190 193 191 190 196 202 206 192 197 183 186 193 203 202 190 190 194 200 186 191 207 214 195 201 205 199 205 213 215 207 213
204 274 136 132 115 260 46 45 356 341 316 298 27 322 278 244 256 216 219 232 239 255 194 157 179 129 121 134 179 203 206 207 207 203 202 209 211 217 218 216 215 215 181 196 186 184 179 190 189 185 191 188 189 186 187 187 188 187 190 186 182 183 183 183 184 185 182 189 189 188 188 192 193 194 197 207 200 193 204 199 201 201 194 192 179 188 199 209 201 202 205 205 205 212 213 214 213
225 263 217 72 296 138 124 82 190 269 268 282 316 302 252 241 248 319 254 246 240 234 250 253 219 201 200 203 214 221 226 227 229 226 218 209 209 212 214 222 225 214 220 199 186 180 182 183 184 189 188 190 187 184 191 187 184 187 186 187 187 183 187 187 183 183 185 184 185 185 180 195 196 189 199 204 192 200 209 206 202 208 202 196 184 195 191 196 200 201 207 211 204 208 210 218 218
184 285 91 136 217 133 117 224 221 195 282 167 320 263 262 251 277 262 257 258 241 241 237 233 243 252 241 233 216 213 221 227 228 228 228 224 213 206 208 208 213 224 221 211 185 192 173 176 184 189 188 187 184 183 191 187 185 184 189 189 185 186 189 184 181 185 188 182 183 183 185 188 196 195 196 199 188 198 203 208 203 209 204 198 191 203 195 185 196 204 205 203 202 211 211 217 205
258 294 305 262 91 180 152 244 191 155 231 204 232 280 271 57 118 277 225 245 233 220 225 223 217 220 238 236 230 226 224 222 217 215 219 222 224 218 220 208 203 214 214 216 201 188 182 169 184 187 187 183 180 186 187 192 184 185 185 184 184 186 185 184 185 186 188 188 186 182 186 187 194 200 198 197 194 193 198 198 202 202 211 207 196 202 195 188 195 200 203 203 202 206 215 216 208
309 331 312 243 189 233 216 208 265 62 265 198 222 260 270 248 178 247 238 47 121 168 199 214 208 223 228 227 226 221 217 219 215 205 212 207 212 212 216 212 218 212 204 214 204 179 179 180 178 182 185 181 180 187 185 189 191 185 180 180 186 184 178 188 191 188 190 190 188 183 185 189 192 203 200 199 194 196 198 194 197 199 212 210 201 197 196 193 195 207 205 198 199 198 218 222 214
91 292 297 173 213 248 194 203 201 145 275 144 217 277 260 191 228 239 246 182 182 191 209 213 213 213 217 227 226 216 211 209 208 210 225 225 211 196 211 210 210 214 217 209 208 186 184 188 176 181 181 180 185 186 185 189 188 185 179 183 182 179 180 182 190 193 192 191 189 186 184 185 190 196 206 205 199 196 196 194 199 204 204 204 202 196 192 196 193 201 217 188 206 236 254 258 255
161 206 226 334 238 276 177 170 124 130 239 146 137 340 263 201 226 247 234 164 178 200 231 227 230 214 215 214 217 208 200 201 209 214 209 209 214 225 219 218 203 199 204 204 196 205 191 175 175 171 180 181 186 186 179 181 187 185 181 179 178 176 180 181 188 190 190 193 189 190 184 182 184 192 197 207 201 201 203 200 199 206 204 201 196 190 188 181 184 188 212 185 213 212 226 233 229
261 161 147 222 12 262 123 176 148 219 159 154 206 230 288 289 224 231 186 174 168 209 220 227 224 222 215 225 218 200 217 197 201 201 201 190 174 124 9 320 319 294 179 174 189 198 183 169 166 179 175 179 179 186 181 179 181 181 179 179 180 177 180 183 185 186 188 191 187 191 185 182 185 187 194 195 200 196 204 211 207 205 203 199 192 181 174 185 183 198 197 202 209 213 216 221 216
246 13 272 220 182 267 178 38 167 225 214 198 190 264 253 301 192 172 176 179 191 221 229 236 228 220 225 219 194 196 216 205 190 168 158 157 144 143 162 227 260 274 259 190 160 169 181 174 153 170 167 176 175 182 183 172 180 182 178 179 179 178 179 183 185 187 185 187 188 186 185 185 187 191 192 193 192 194 197 206 208 201 204 195 189 177 174 190 199 205 207 193 203 218 209 227 219
235 169 289 289 187 227 17 198 195 214 315 231 189 247 322 306 165 175 202 182 209 220 233 230 232 236 250 230 202 194 196 173 163 170 159 122 143 161 175 216 209 225 243 191 164 157 190 167 152 159 168 177 167 177 181 178 174 179 179 178 178 176 180 183 185 181 185 188 190 188 184 184 189 193 195 194 189 191 198 204 206 197 197 192 183 186 189 198 194 202 214 208 195 210 211 223 226
237 205 244 252 222 224 246 3 267 264 233 240 206 238 246 255 272 249 209 210 210 227 229 228 236 243 232 213 197 181 176 195 194 167 128 120 117 123 159 173 180 183 214 201 174 163 190 172 161 165 167 183 167 174 180 185 183 172 176 175 176 174 184 182 182 180 189 190 188 194 180 182 188 192 196 195 195 193 192 197 207 200 190 183 181 186 198 200 208 202 214 215 202 206 224 226 236
333 130 256 292 309 235 231 194 185 268 199 218 255 244 265 270 271 264 248 206 217 230 229 228 231 232 226 204 193 193 190 171 185 114 109 114 127 145 160 153 151 239 184 189 200 165 174 173 153 173 169 179 175 164 173 175 182 174 169 166 178 176 182 188 183 189 192 189 193 188 181 179 185 189 191 192 193 201 200 198 199 203 179 177 177 192 202 205 210 213 205 222 216 208 209 218 225
316 322 289 285 295 295 276 95 180 322 225 248 233 238 268 279 282 284 278 254 230 236 229 224 221 229 240 215 201 187 169 165 101 109 108 119 112 108 146 131 166 172 200 188 185 192 176 159 151 168 182 173 174 158 158 169 171 181 178 174 176 196 182 186 202 193 190 193 193 188 186 179 180 184 188 191 194 197 201 201 198 194 178 171 184 196 209 207 208 208 216 204 222 235 221 219 223
274 276 268 261 265 285 104 100 263 215 295 239 234 255 270 280 280 282 281 266 250 249 249 233 205 209 219 222 209 187 162 151 141 126 144 132 153 148 119 142 177 167 207 177 172 182 192 170 154 173 190 178 173 165 168 171 174 178 176 190 194 189 190 183 194 206 199 198 194 190 186 182 178 182 187 188 196 195 195 196 192 193 180 179 189 204 202 208 206 200 208 203 210 232 256 225 229
279 288 294 289 260 261 23 100 236 199 43 296 315 311 286 278 283 276 281 276 259 241 244 237 224 221 219 211 204 168 158 105 147 135 146 161 141 144 151 159 169 157 209 172 182 187 193 182 171 172 184 187 183 175 172 178 187 188 173 182 174 179 183 188 198 199 206 205 195 189 186 184 184 183 186 189 193 191 191 191 190 194 186 194 200 201 204 206 205 201 188 214 206 204 233 197 203
282 244 283 322 285 318 100 79 219 205 124 267 356 328 290 284 275 281 272 244 243 182 218 211 206 225 214 201 185 156 134 160 159 177 166 151 148 160 145 157 148 117 155 184 183 174 183 187 178 181 179 186 191 174 168 186 181 181 173 174 173 189 190 189 188 190 188 198 200 191 184 181 187 187 185 187 187 191 191 190 196 189 194 192 198 208 206 211 206 200 189 189 209 224 217 215 184
250 260 235 242 230 51 300 255 282 211 179 275 323 309 288 283 277 261 242 87 292 335 356 288 213 281 222 188 174 164 169 173 171 172 175 154 163 162 152 160 148 174 168 160 169 193 173 193 188 188 182 181 187 188 167 181 178 177 179 173 167 153 186 179 186 187 181 180 197 189 190 184 185 187 183 184 187 188 188 196 199 196 197 192 193 199 204 210 202 202 196 198 174 220 206 241 197
222 214 240 277 7 360 165 311 319 338 356 24 279 267 288 267 285 310 295 278 312 263 232 264 268 241 280 50 56 153 172 167 181 175 158 149 165 159 158 154 161 182 161 136 165 185 170 191 184 189 178 176 176 185 174 166 159 153 134 57 62 74 30 91 137 173 170 181 185 191 197 184 184 186 186 188 189 192 194 196 198 201 195 194 188 193 197 202 201 199 193 192 194 200 235 218 235
304 58 81 15 348 344 353 324 334 336 317 205 20 1 301 341 336 314 275 281 267 215 188 225 217 222 233 215 204 199 208 165 172 178 174 156 153 138 145 175 174 191 141 144 146 171 148 192 143 166 172 163 176 172 173 158 156 158 142 143 165 173 181 181 188 194 193 188 199 190 188 188 188 189 190 191 192 193 197 198 199 197 193 189 189 194 197 193 198 196 197 188 200 200 194 226 249
38 248 337 344 12 37 312 332 15 329 304 289 94 52 281 284 281 282 258 224 264 187 202 234 204 198 204 215 203 189 182 188 187 120 124 144 165 172 170 167 173 162 118 144 166 151 155 147 147 161 188 174 166 156 164 162 157 168 172 177 183 188 193 222 202 203 194 203 189 187 190 188 191 188 195 188 190 189 188 192 195 200 202 193 186 183 195 202 199 193 187 184 191 188 187 218 220
242 203 250 269 46 339 325 36 195 228 278 290 172 155 229 302 285 251 307 297 278 270 240 224 219 206 197 201 203 184 180 178 179 185 181 184 177 176 183 160 171 134 137 147 146 133 144 162 155 189 215 169 156 148 169 174 168 182 183 189 193 195 196 216 206 205 192 182 179 188 174 181 185 186 188 190 184 184 184 186 187 192 200 208 185 189 191 199 197 196 180 180 182 181 181 197 211
217 209 217 116 147 166 224 216 247 247 11 300 238 237 262 253 265 331 337 308 292 270 232 217 210 215 207 194 193 184 178 174 172 181 183 184 172 185 149 150 131 130 132 134 123 121 141 139 178 166 194 149 157 161 172 194 183 187 189 188 211 225 212 220 110 112 114 131 152 160 160 171 180 187 186 188 185 180 185 184 180 184 190 205 194 188 188 186 188 184 176 163 183 194 176 185 182
309 238 239 268 250 192 187 214 325 302 98 270 236 184 203 273 269 281 347 247 281 267 163 193 196 199 206 197 188 171 160 160 170 178 176 171 172 165 147 134 141 139 146 149 160 172 158 172 171 171 177 168 147 180 169 195 218 210 185 191 195 223 241 268 102 132 132 138 144 165 165 160 176 182 192 182 184 180 179 183 182 184 187 192 187 191 187 184 184 173 170 177 175 186 205 191 195
306 293 302 254 206 200 169 194 201 355 267 243 240 193 179 289 265 236 181 220 220 146 86 66 83 174 204 193 178 169 165 171 177 173 164 158 157 141 132 158 171 132 142 172 146 164 167 182 164 159 161 134 145 171 198 183 198 224 200 199 197 202 210 182 176 173 161 151 175 183 185 184 172 182 182 188 177 184 182 184 182 184 180 180 180 179 185 173 174 171 181 168 174 183 202 205 208
345 302 285 314 321 30 59 283 121 170 266 220 330 320 66 172 291 283 194 240 202 106 238 206 212 210 213 195 185 172 166 173 174 173 164 153 141 145 159 189 164 168 172 177 170 164 178 179 164 132 146 144 157 166 187 190 179 213 217 205 199 203 203 188 183 189 186 181 182 192 195 187 193 172 175 179 184 174 172 176 174 170 174 171 180 175 172 168 175 172 176 185 193 188 188 191 194
359 314 336 99 271 33 299 87 303 209 219 203 351 60 336 253 238 273 308 292 300 301 284 218 297 19 210 203 201 179 165 159 170 182 173 170 173 179 186 202 174 170 187 178 180 175 177 182 184 149 161 155 154 176 185 191 180 190 205 211 199 198 207 188 191 200 205 178 183 183 175 186 185 164 174 163 179 172 159 157 167 171 174 176 177 162 184 169 163 159 162 170 177 184 197 192 198
296 181 214 138 257 198 243 236 214 218 340 265 146 46 220 252 280 247 256 277 267 251 136 88 76 353 336 340 360 265 166 158 170 178 182 182 182 190 192 193 184 183 182 175 171 174 178 178 195 154 165 161 154 167 170 178 204 198 185 185 193 192 194 179 209 180 221 174 167 178 170 174 177 183 178 178 162 149 150 165 163 181 185 182 172 154 139 129 122 136 148 156 168 180 160 180 194
218 116 64 213 316 301 273 208 222 232 216 192 290 61 233 143 237 187 239 257 300 276 10 116 103 84 356 336 341 352 356 169 167 180 190 182 191 186 188 190 182 184 178 176 173 184 172 186 182 157 156 169 162 162 168 181 185 178 180 189 173 158 167 166 195 209 186 159 91 102 89 83 102 127 114 103 109 118 121 98 108 128 108 102 107 102 102 108 116 100 137 151 150 171 165 142 144
242 272 59 34 256 351 227 257 334 316 346 325 210 205 211 191 298 307 293 288 283 280 316 70 322 240 280 307 283 273 262 241 189 194 201 204 191 187 185 187 182 177 176 174 179 180 182 188 181 176 168 171 159 152 166 171 165 173 190 165 194 169 143 143 166 111 78 95 79 100 116 89 80 93 92 101 85 102 105 107 96 99 106 106 116 123 125 127 137 147 142 131 114 65 103 95 92
308 34 229 237 191 134 303 351 60 59 79 258 180 284 298 281 301 267 279 296 288 289 120 72 276 301 116 275 271 251 238 229 212 198 203 210 205 197 190 186 182 179 176 183 187 182 186 178 171 166 151 154 153 160 154 154 149 133 195 205 151 132 142 161 164 126 101 74 74 74 91 90 77 75 97 100 102 88 101 120 135 110 106 108 105 116 127 131 139 147 133 122 108 87 88 111 70
61 169 252 280 130 169 129 256 330 303 234 269 146 231 287 311 312 322 32 9 307 244 86 226 46 75 313 273 271 260 247 228 214 197 192 192 196 200 196 191 187 186 186 185 187 183 184 174 176 169 169 166 170 153 151 150 155 162 150 119 63 123 131 97 88 110 108 120 136 100 103 105 96 95 105 96 107 98 90 83 110 113 109 108 112 101 95 104 114 101 100 88 118 118 102 96 85
154 200 320 27 294 344 261 91 314 314 262 289 237 264 249 179 249 330 305 303 323 22 15 25 25 5 308 303 287 268 267 270 243 218 199 199 198 200 197 197 194 187 185 186 175 168 167 171 183 170 177 174 162 155 140 125 125 125 120 142 140 137 76 100 88 89 106 132 134 118 101 115 108 112 110 118 116 123 129 107 105 108 101 99 98 103 102 105 102 102 88 93 83 102 109 101 76
232 343 355 244 107 201 344 213 204 104 268 338 269 271 251 194 222 230 283 10 37 6 4 350 338 350 357 8 12 3 321 270 270 264 242 221 211 204 198 195 192 188 181 178 168 165 176 177 171 174 141 126 128 138 149 152 159 130 126 105 91 122 117 120 133 150 140 115 112 110 113 103 120 106 116 129 125 128 123 107 106 111 107 100 99 100 110 112 96 105 111 105 106 98 110 107 76
34 89 228 38 215 235 169 301 207 211 253 238 288 283 242 258 283 88 72 28 1 1 346 339 326 323 337 339 318 290 286 287 279 266 261 244 223 217 211 204 200 187 175 169 171 179 181 171 178 179 168 166 165 168 159 161 141 144 148 163 158 140 130 123 106 98 107 105 99 98 99 117 89 98 110 101 110 118 118 119 116 116 117 117 112 111 107 94 91 92 99 113 99 87 97 108 103
169 163 196 184 153 281 6 285 127 219 180 251 266 269 202 270 312 311 323 355 355 341 350 323 307 305 298 288 280 251 254 259 246 248 255 264 248 220 209 196 184 177 183 181 181 173 181 184 183 179 172 177 168 164 159 149 143 149 164 147 133 126 135 129 132 110 103 105 100 97 114 93 100 90 97 99 99 99 103 104 102 102 103 108 115 113 107 101 100 97 95 94 89 92 95 104 105